Time,TemperatureF,DewpointF,PressureIn,WindDirection,WindDirectionDegrees,WindSpeedMPH,WindSpeedGustMPH,Humidity,HourlyPrecipIn,Conditions,Clouds,dailyrainin,SoftwareType,DateUTC
2013-03-30 00:02:00,43.0,36.0,-100.00,South,180,6.0,7.0,76,-99.99,,,-99.99,,2013-03-30 07:02:00,
2013-03-30 00:12:00,43.0,36.0,-100.00,South,180,6.0,7.0,76,-99.99,,,-99.99,,2013-03-30 07:12:00,
2013-03-30 00:22:00,43.0,36.0,-100.00,South,180,6.0,7.0,76,-99.99,,,-99.99,,2013-03-30 07:22:00,
2013-03-30 00:52:00,42.0,35.0,-100.00,South,180,4.0,8.0,77,-99.99,,,-99.99,,2013-03-30 07:52:00,
2013-03-30 01:01:00,42.0,36.0,-100.00,South,180,4.0,6.0,78,-99.99,,,-99.99,,2013-03-30 08:01:00,
2013-03-30 01:12:00,42.0,36.0,-100.00,South,180,4.0,6.0,78,-99.99,,,-99.99,,2013-03-30 08:12:00,
2013-03-30 01:21:00,41.0,35.0,-100.00,South,180,4.0,6.0,79,-99.99,,,-99.99,,2013-03-30 08:21:00,
2013-03-30 01:32:00,41.0,35.0,-100.00,South,180,6.0,7.0,79,-99.99,,,-99.99,,2013-03-30 08:32:00,
2013-03-30 01:42:00,41.0,35.0,-100.00,South,180,6.0,7.0,79,-99.99,,,-99.99,,2013-03-30 08:42:00,
2013-03-30 01:52:00,41.0,35.0,-100.00,South,180,4.0,7.0,80,-99.99,,,-99.99,,2013-03-30 08:52:00,
2013-03-30 02:02:00,40.0,35.0,-100.00,South,180,5.0,8.0,81,-99.99,,,-99.99,,2013-03-30 09:02:00,
2013-03-30 02:12:00,40.0,35.0,-100.00,South,180,5.0,8.0,81,-99.99,,,-99.99,,2013-03-30 09:12:00,
2013-03-30 02:22:00,40.0,35.0,-100.00,South,180,5.0,7.0,82,-99.99,,,-99.99,,2013-03-30 09:22:00,
2013-03-30 02:33:00,40.0,35.0,-100.00,South,180,5.0,7.0,82,-99.99,,,-99.99,,2013-03-30 09:33:00,
2013-03-30 02:42:00,40.0,35.0,-100.00,South,180,5.0,7.0,82,-99.99,,,-99.99,,2013-03-30 09:42:00,
2013-03-30 02:53:00,39.0,34.0,-100.00,South,180,5.0,7.0,83,-99.99,,,-99.99,,2013-03-30 09:53:00,
2013-03-30 03:02:00,39.0,34.0,-100.00,South,180,6.0,9.0,84,-99.99,,,-99.99,,2013-03-30 10:02:00,
2013-03-30 03:12:00,39.0,34.0,-100.00,South,180,6.0,9.0,84,-99.99,,,-99.99,,2013-03-30 10:12:00,
2013-03-30 03:23:00,38.0,34.0,-100.00,South,180,6.0,8.0,85,-99.99,,,-99.99,,2013-03-30 10:23:00,
2013-03-30 03:32:00,38.0,34.0,-100.00,South,180,7.0,8.0,85,-99.99,,,-99.99,,2013-03-30 10:32:00,
2013-03-30 03:42:00,38.0,34.0,-100.00,South,180,7.0,8.0,85,-99.99,,,-99.99,,2013-03-30 10:42:00,
2013-03-30 03:52:00,38.0,34.0,-100.00,South,180,7.0,9.0,85,-99.99,,,-99.99,,2013-03-30 10:52:00,
2013-03-30 04:03:00,38.0,34.0,-100.00,South,180,6.0,8.0,85,-99.99,,,-99.99,,2013-03-30 11:03:00,
2013-03-30 04:12:00,38.0,34.0,-100.00,South,180,6.0,8.0,85,-99.99,,,-99.99,,2013-03-30 11:12:00,
2013-03-30 04:22:00,37.0,34.0,-100.00,South,180,7.0,9.0,86,-99.99,,,-99.99,,2013-03-30 11:22:00,
2013-03-30 04:32:00,37.0,34.0,-100.00,South,180,7.0,9.0,86,-99.99,,,-99.99,,2013-03-30 11:32:00,
2013-03-30 04:42:00,37.0,34.0,-100.00,South,180,7.0,9.0,86,-99.99,,,-99.99,,2013-03-30 11:42:00,
2013-03-30 04:52:00,37.0,33.0,-100.00,South,180,7.0,9.0,86,-99.99,,,-99.99,,2013-03-30 11:52:00,
2013-03-30 05:02:00,37.0,33.0,-100.00,South,180,7.0,9.0,86,-99.99,,,-99.99,,2013-03-30 12:02:00,
2013-03-30 05:12:00,37.0,33.0,-100.00,South,180,7.0,9.0,86,-99.99,,,-99.99,,2013-03-30 12:12:00,
2013-03-30 05:22:00,37.0,33.0,-100.00,South,180,7.0,9.0,87,-99.99,,,-99.99,,2013-03-30 12:22:00,
2013-03-30 05:32:00,36.0,33.0,-100.00,South,180,8.0,9.0,87,-99.99,,,-99.99,,2013-03-30 12:32:00,
2013-03-30 05:42:00,36.0,33.0,-100.00,South,180,8.0,9.0,87,-99.99,,,-99.99,,2013-03-30 12:42:00,
2013-03-30 05:52:00,36.0,33.0,-100.00,South,180,8.0,10.0,87,-99.99,,,-99.99,,2013-03-30 12:52:00,
2013-03-30 06:02:00,36.0,33.0,-100.00,South,180,7.0,11.0,87,-99.99,,,-99.99,,2013-03-30 13:02:00,
2013-03-30 06:12:00,36.0,33.0,-100.00,South,180,7.0,11.0,87,-99.99,,,-99.99,,2013-03-30 13:12:00,
2013-03-30 06:22:00,36.0,33.0,-100.00,South,180,9.0,11.0,87,-99.99,,,-99.99,,2013-03-30 13:22:00,
2013-03-30 06:32:00,37.0,33.0,-100.00,SW,225,7.0,11.0,87,-99.99,,,-99.99,,2013-03-30 13:32:00,
2013-03-30 06:42:00,37.0,33.0,-100.00,SW,225,7.0,11.0,87,-99.99,,,-99.99,,2013-03-30 13:42:00,
2013-03-30 06:52:00,36.0,33.0,-100.00,South,180,7.0,10.0,87,-99.99,,,-99.99,,2013-03-30 13:52:00,
2013-03-30 07:02:00,37.0,33.0,-100.00,South,180,6.0,10.0,87,-99.99,,,-99.99,,2013-03-30 14:02:00,
2013-03-30 07:11:00,37.0,33.0,-100.00,South,180,6.0,10.0,87,-99.99,,,-99.99,,2013-03-30 14:11:00,
2013-03-30 07:22:00,37.0,34.0,-100.00,South,180,8.0,11.0,87,-99.99,,,-99.99,,2013-03-30 14:22:00,
2013-03-30 07:32:00,36.0,33.0,-100.00,South,180,8.0,11.0,87,-99.99,,,-99.99,,2013-03-30 14:32:00,
2013-03-30 07:42:00,36.0,33.0,-100.00,South,180,8.0,11.0,87,-99.99,,,-99.99,,2013-03-30 14:42:00,
2013-03-30 07:52:00,37.0,33.0,-100.00,South,180,9.0,15.0,87,-99.99,,,-99.99,,2013-03-30 14:52:00,
2013-03-30 08:02:00,37.0,33.0,-100.00,South,180,9.0,13.0,86,-99.99,,,-99.99,,2013-03-30 15:02:00,
2013-03-30 08:12:00,37.0,33.0,-100.00,South,180,9.0,13.0,86,-99.99,,,-99.99,,2013-03-30 15:12:00,
2013-03-30 08:22:00,38.0,33.0,-100.00,South,180,9.0,13.0,84,-99.99,,,-99.99,,2013-03-30 15:22:00,
2013-03-30 08:33:00,38.0,34.0,-100.00,South,180,9.0,13.0,83,-99.99,,,-99.99,,2013-03-30 15:33:00,
2013-03-30 08:42:00,38.0,34.0,-100.00,South,180,9.0,13.0,83,-99.99,,,-99.99,,2013-03-30 15:42:00,
2013-03-30 08:52:00,39.0,34.0,-100.00,SW,225,10.0,13.0,80,-99.99,,,-99.99,,2013-03-30 15:52:00,
2013-03-30 09:03:00,41.0,34.0,-100.00,SW,225,8.0,13.0,78,-99.99,,,-99.99,,2013-03-30 16:03:00,
2013-03-30 09:12:00,41.0,34.0,-100.00,SW,225,8.0,13.0,78,-99.99,,,-99.99,,2013-03-30 16:12:00,
2013-03-30 09:23:00,42.0,35.0,-100.00,South,180,8.0,11.0,75,-99.99,,,-99.99,,2013-03-30 16:23:00,
2013-03-30 09:32:00,43.0,35.0,-100.00,SW,225,7.0,13.0,73,-99.99,,,-99.99,,2013-03-30 16:32:00,
2013-03-30 09:42:00,43.0,35.0,-100.00,SW,225,7.0,13.0,73,-99.99,,,-99.99,,2013-03-30 16:42:00,
2013-03-30 09:52:00,45.0,35.0,-100.00,SW,225,6.0,8.0,69,-99.99,,,-99.99,,2013-03-30 16:52:00,
2013-03-30 10:02:00,47.0,37.0,-100.00,South,180,4.0,6.0,66,-99.99,,,-99.99,,2013-03-30 17:02:00,
2013-03-30 10:13:00,47.0,37.0,-100.00,South,180,4.0,6.0,66,-99.99,,,-99.99,,2013-03-30 17:13:00,
2013-03-30 10:22:00,49.0,37.0,-100.00,South,180,6.0,8.0,64,-99.99,,,-99.99,,2013-03-30 17:22:00,
2013-03-30 10:32:00,50.0,37.0,-100.00,South,180,4.0,8.0,60,-99.99,,,-99.99,,2013-03-30 17:32:00,
2013-03-30 10:42:00,50.0,37.0,-100.00,South,180,4.0,8.0,60,-99.99,,,-99.99,,2013-03-30 17:42:00,
2013-03-30 10:52:00,52.0,38.0,-100.00,SW,225,2.0,6.0,58,-99.99,,,-99.99,,2013-03-30 17:52:00,
2013-03-30 11:02:00,54.0,38.0,-100.00,North,0,4.0,6.0,55,-99.99,,,-99.99,,2013-03-30 18:02:00,
2013-03-30 11:12:00,54.0,38.0,-100.00,North,0,4.0,6.0,55,-99.99,,,-99.99,,2013-03-30 18:12:00,
2013-03-30 11:22:00,55.0,39.0,-100.00,North,0,1.0,5.0,54,-99.99,,,-99.99,,2013-03-30 18:22:00,
2013-03-30 11:32:00,55.0,38.0,-100.00,NW,315,4.0,8.0,52,-99.99,,,-99.99,,2013-03-30 18:32:00,
2013-03-30 11:42:00,55.0,38.0,-100.00,NW,315,4.0,8.0,52,-99.99,,,-99.99,,2013-03-30 18:42:00,
2013-03-30 11:52:00,57.0,39.0,-100.00,North,0,3.0,9.0,51,-99.99,,,-99.99,,2013-03-30 18:52:00,
2013-03-30 12:02:00,58.0,39.0,-100.00,NE,45,4.0,9.0,49,-99.99,,,-99.99,,2013-03-30 19:02:00,
2013-03-30 12:12:00,58.0,39.0,-100.00,NE,45,4.0,9.0,49,-99.99,,,-99.99,,2013-03-30 19:12:00,
2013-03-30 12:22:00,59.0,39.0,-100.00,North,0,2.0,7.0,46,-99.99,,,-99.99,,2013-03-30 19:22:00,
2013-03-30 12:32:00,59.0,39.0,-100.00,North,0,2.0,7.0,46,-99.99,,,-99.99,,2013-03-30 19:32:00,
2013-03-30 12:42:00,59.0,39.0,-100.00,North,0,2.0,7.0,46,-99.99,,,-99.99,,2013-03-30 19:42:00,
2013-03-30 12:53:00,62.0,39.0,-100.00,East,90,4.0,9.0,42,-99.99,,,-99.99,,2013-03-30 19:53:00,
2013-03-30 13:02:00,63.0,39.0,-100.00,NE,45,4.0,6.0,41,-99.99,,,-99.99,,2013-03-30 20:02:00,
2013-03-30 13:12:00,63.0,39.0,-100.00,NE,45,4.0,6.0,41,-99.99,,,-99.99,,2013-03-30 20:12:00,
2013-03-30 13:22:00,63.0,39.0,-100.00,North,0,5.0,8.0,41,-99.99,,,-99.99,,2013-03-30 20:22:00,
2013-03-30 13:32:00,65.0,39.0,-100.00,East,90,4.0,6.0,39,-99.99,,,-99.99,,2013-03-30 20:32:00,
2013-03-30 13:42:00,65.0,39.0,-100.00,East,90,4.0,6.0,39,-99.99,,,-99.99,,2013-03-30 20:42:00,
2013-03-30 13:52:00,64.0,38.0,-100.00,NE,45,4.0,9.0,38,-99.99,,,-99.99,,2013-03-30 20:52:00,
2013-03-30 14:02:00,65.0,38.0,-100.00,North,0,4.0,11.0,38,-99.99,,,-99.99,,2013-03-30 21:02:00,
2013-03-30 14:12:00,65.0,38.0,-100.00,North,0,4.0,11.0,38,-99.99,,,-99.99,,2013-03-30 21:12:00,
2013-03-30 14:22:00,66.0,38.0,-100.00,North,0,4.0,9.0,36,-99.99,,,-99.99,,2013-03-30 21:22:00,
2013-03-30 14:33:00,67.0,38.0,-100.00,North,0,4.0,8.0,35,-99.99,,,-99.99,,2013-03-30 21:33:00,
2013-03-30 14:43:00,67.0,38.0,-100.00,North,0,4.0,8.0,35,-99.99,,,-99.99,,2013-03-30 21:43:00,
2013-03-30 14:52:00,66.0,38.0,-100.00,NE,45,7.0,11.0,35,-99.99,,,-99.99,,2013-03-30 21:52:00,
2013-03-30 15:02:00,67.0,37.0,-100.00,NE,45,4.0,11.0,33,-99.99,,,-99.99,,2013-03-30 22:02:00,
2013-03-30 15:12:00,67.0,37.0,-100.00,NE,45,4.0,11.0,33,-99.99,,,-99.99,,2013-03-30 22:12:00,
2013-03-30 15:23:00,68.0,37.0,-100.00,NE,45,4.0,12.0,31,-99.99,,,-99.99,,2013-03-30 22:23:00,
2013-03-30 15:32:00,67.0,36.0,-100.00,NE,45,9.0,12.0,31,-99.99,,,-99.99,,2013-03-30 22:32:00,
2013-03-30 15:43:00,67.0,36.0,-100.00,NE,45,9.0,12.0,31,-99.99,,,-99.99,,2013-03-30 22:43:00,
2013-03-30 15:53:00,68.0,36.0,-100.00,North,0,5.0,12.0,31,-99.99,,,-99.99,,2013-03-30 22:53:00,
2013-03-30 16:02:00,68.0,37.0,-100.00,North,0,3.0,16.0,32,-99.99,,,-99.99,,2013-03-30 23:02:00,
2013-03-30 16:12:00,68.0,37.0,-100.00,North,0,3.0,16.0,32,-99.99,,,-99.99,,2013-03-30 23:12:00,
2013-03-30 16:22:00,68.0,37.0,-100.00,North,0,6.0,10.0,32,-99.99,,,-99.99,,2013-03-30 23:22:00,
2013-03-30 16:32:00,68.0,37.0,-100.00,NW,315,8.0,12.0,32,-99.99,,,-99.99,,2013-03-30 23:32:00,
2013-03-30 16:42:00,68.0,37.0,-100.00,NW,315,8.0,12.0,32,-99.99,,,-99.99,,2013-03-30 23:42:00,
2013-03-30 16:52:00,67.0,36.0,-100.00,North,0,11.0,14.0,32,-99.99,,,-99.99,,2013-03-30 23:52:00,
2013-03-30 17:02:00,67.0,36.0,-100.00,North,0,9.0,12.0,32,-99.99,,,-99.99,,2013-03-31 00:02:00,
2013-03-30 17:12:00,67.0,36.0,-100.00,North,0,9.0,12.0,32,-99.99,,,-99.99,,2013-03-31 00:12:00,
2013-03-30 17:22:00,67.0,37.0,-100.00,North,0,7.0,16.0,33,-99.99,,,-99.99,,2013-03-31 00:22:00,
2013-03-30 17:32:00,67.0,37.0,-100.00,North,0,8.0,15.0,34,-99.99,,,-99.99,,2013-03-31 00:32:00,
2013-03-30 17:42:00,67.0,37.0,-100.00,North,0,8.0,15.0,34,-99.99,,,-99.99,,2013-03-31 00:42:00,
2013-03-30 17:52:00,67.0,37.0,-100.00,North,0,9.0,14.0,34,-99.99,,,-99.99,,2013-03-31 00:52:00,
2013-03-30 18:02:00,66.0,37.0,-100.00,North,0,10.0,15.0,34,-99.99,,,-99.99,,2013-03-31 01:02:00,
2013-03-30 18:12:00,66.0,37.0,-100.00,North,0,10.0,15.0,34,-99.99,,,-99.99,,2013-03-31 01:12:00,
2013-03-30 18:22:00,65.0,37.0,-100.00,North,0,10.0,14.0,35,-99.99,,,-99.99,,2013-03-31 01:22:00,
2013-03-30 18:32:00,65.0,37.0,-100.00,North,0,9.0,14.0,36,-99.99,,,-99.99,,2013-03-31 01:32:00,
2013-03-30 18:42:00,65.0,37.0,-100.00,North,0,9.0,14.0,36,-99.99,,,-99.99,,2013-03-31 01:42:00,
2013-03-30 18:52:00,65.0,37.0,-100.00,NW,315,10.0,14.0,36,-99.99,,,-99.99,,2013-03-31 01:52:00,
2013-03-30 19:02:00,64.0,37.0,-100.00,North,0,9.0,14.0,37,-99.99,,,-99.99,,2013-03-31 02:02:00,
2013-03-30 19:12:00,64.0,37.0,-100.00,North,0,9.0,14.0,37,-99.99,,,-99.99,,2013-03-31 02:12:00,
2013-03-30 19:22:00,63.0,37.0,-100.00,North,0,8.0,13.0,37,-99.99,,,-99.99,,2013-03-31 02:22:00,
2013-03-30 19:32:00,63.0,37.0,-100.00,North,0,10.0,15.0,38,-99.99,,,-99.99,,2013-03-31 02:32:00,
2013-03-30 19:42:00,63.0,37.0,-100.00,North,0,10.0,15.0,38,-99.99,,,-99.99,,2013-03-31 02:42:00,
2013-03-30 19:52:00,62.0,37.0,-100.00,NW,315,4.0,11.0,39,-99.99,,,-99.99,,2013-03-31 02:52:00,
2013-03-30 20:02:00,61.0,36.0,-100.00,NW,315,6.0,9.0,40,-99.99,,,-99.99,,2013-03-31 03:02:00,
2013-03-30 20:12:00,61.0,36.0,-100.00,NW,315,6.0,9.0,40,-99.99,,,-99.99,,2013-03-31 03:12:00,
2013-03-30 20:22:00,60.0,37.0,-100.00,NW,315,6.0,9.0,42,-99.99,,,-99.99,,2013-03-31 03:22:00,
2013-03-30 20:32:00,59.0,36.0,-100.00,NW,315,6.0,10.0,42,-99.99,,,-99.99,,2013-03-31 03:32:00,
2013-03-30 20:43:00,59.0,36.0,-100.00,NW,315,6.0,10.0,42,-99.99,,,-99.99,,2013-03-31 03:43:00,
2013-03-30 20:53:00,59.0,36.0,-100.00,NW,315,7.0,9.0,43,-99.99,,,-99.99,,2013-03-31 03:53:00,
2013-03-30 21:02:00,59.0,-99.9,-100.00,NW,315,6.0,10.0,44,-99.99,,,-99.99,,2013-03-31 04:02:00,
2013-03-30 21:12:00,59.0,37.0,-100.00,NW,315,6.0,10.0,44,-99.99,,,-99.99,,2013-03-31 04:12:00,
2013-03-30 21:22:00,58.0,36.0,-100.00,NW,315,6.0,10.0,44,-99.99,,,-99.99,,2013-03-31 04:22:00,
2013-03-30 21:32:00,58.0,36.0,-100.00,NW,315,7.0,10.0,45,-99.99,,,-99.99,,2013-03-31 04:32:00,
2013-03-30 21:42:00,58.0,36.0,-100.00,NW,315,7.0,10.0,45,-99.99,,,-99.99,,2013-03-31 04:42:00,
2013-03-30 21:52:00,57.0,36.0,-100.00,NW,315,6.0,12.0,46,-99.99,,,-99.99,,2013-03-31 04:52:00,
2013-03-30 22:02:00,57.0,37.0,-100.00,NW,315,9.0,12.0,47,-99.99,,,-99.99,,2013-03-31 05:02:00,
2013-03-30 22:12:00,57.0,37.0,-100.00,NW,315,9.0,12.0,47,-99.99,,,-99.99,,2013-03-31 05:12:00,
2013-03-30 22:22:00,56.0,37.0,-100.00,NW,315,9.0,13.0,47,-99.99,,,-99.99,,2013-03-31 05:22:00,
2013-03-30 22:32:00,56.0,37.0,-100.00,NW,315,9.0,13.0,48,-99.99,,,-99.99,,2013-03-31 05:32:00,
2013-03-30 22:42:00,56.0,37.0,-100.00,NW,315,9.0,13.0,48,-99.99,,,-99.99,,2013-03-31 05:42:00,
2013-03-30 22:52:00,56.0,37.0,-100.00,NW,315,7.0,14.0,49,-99.99,,,-99.99,,2013-03-31 05:52:00,
2013-03-30 23:01:00,55.0,37.0,-100.00,NW,315,5.0,9.0,50,-99.99,,,-99.99,,2013-03-31 06:01:00,
2013-03-30 23:11:00,55.0,37.0,-100.00,NW,315,5.0,9.0,50,-99.99,,,-99.99,,2013-03-31 06:11:00,
2013-03-30 23:22:00,54.0,37.0,-100.00,NW,315,6.0,10.0,51,-99.99,,,-99.99,,2013-03-31 06:22:00,
2013-03-30 23:32:00,54.0,37.0,-100.00,North,0,6.0,12.0,52,-99.99,,,-99.99,,2013-03-31 06:32:00,
2013-03-30 23:42:00,54.0,37.0,-100.00,North,0,6.0,12.0,52,-99.99,,,-99.99,,2013-03-31 06:42:00,
2013-03-30 23:52:00,53.0,37.0,-100.00,North,0,6.0,10.0,54,-99.99,,,-99.99,,2013-03-31 06:52:00,